Location: Appeville
(49.3218°N, 1.3427°W)
Time: 10:39:48
(UTC+00:00)

Cosmos 676 Rocket - Pass Details

Date: 08 December 2019
Orbit: 754 x 785 km, 74.0° (Epoch: 23 January)

Event Time Altitude Azimuth Distance (km) Brightness Sun altitude
Exits shadow 05:18:59 43° 332° (NNW) 1,071 4.4 -23.1°
Maximum altitude 05:20:44 84° 249° (WSW) 781 3.9 -22.8°
Drops below altitude 10° 05:26:01 10° 161° (SSE) 2,316 6.8 -21.9°
Sets 05:28:23 0° 161° (SSE) 3,243 7.6 -21.6°
